{"data":{"norad_id":53249,"intl_designator":"2022-086H","name":"STARLINK-4128","alt_names":[],"object_type":"PAYLOAD","status":"ACTIVE","operator":null,"country":"US","launch_date":"2022-07-24","launch_site_code":"AFETR","launch_vehicle":null,"mission":null,"orbit_class":"UNKNOWN","rcs_meters":null,"size_class":null,"mass_kg":null,"dimensions":null,"purposes":["comms"],"wikipedia_slug":null,"has_3d_model":false,"image_url":null,"decayed_at":null,"tle_current":{"epoch":"2026-09-20T01:55:32.791296Z","epoch_age_seconds":111621,"freshness":"FRESH","line1":"1 53249U 22086H   26263.08024064  .00000420  00000+0  25305-4 0  9998","line2":"2 53249  53.1615  27.0284 0001221  82.0801 278.0339 15.31699132230629","mean_motion":15.31699132,"eccentricity":0.0001221,"inclination_deg":53.1615,"raan_deg":27.0284,"arg_perigee_deg":82.0801,"mean_anomaly_deg":278.0339,"bstar":2.5305e-5,"rev_number":23062,"period_min":94.01324123751,"perigee_km":469.90633449266,"apogee_km":471.57883088675,"semimajor_km":6848.8795826897,"source":"CELESTRAK","updated_at":"2026-09-20T09:00:40.213545Z"}}}